Simultaneous Nadir Overpasses (SNOs) Predictions

Prediction of SNOs between GOES-16 and METOP-B Satellite Orbit:

Table of predicted SNOs for the next 14.0 days since TLE Epoch: 10/16/2023
Index Date Time (GOES-16) GOES-16 Lat,Lon METOP-B Lat,Lon Distance(km) Time Diff (sec)
1 10/16/2023 14:36:13 -0.05, -75.22 0.41, -77.31 238.49 80
2 10/17/2023 14:18:13 -0.05, -75.22 -0.72, -72.32 330.84 80
3 10/19/2023 02:34:31 0.04, -75.20 -0.31, -76.91 194.42 80
4 10/20/2023 02:16:30 0.04, -75.20 0.76, -71.91 374.97 80
5 10/21/2023 14:32:40 -0.04, -75.22 0.21, -76.48 142.88 80
6 10/22/2023 14:14:38 -0.03, -75.22 -0.86, -71.47 426.82 80
7 10/24/2023 02:33:37 0.03, -75.21 -0.15, -76.07 97.46 80
8 10/25/2023 02:10:15 0.03, -75.21 0.93, -71.06 472.71 80
9 10/26/2023 14:29:05 -0.03, -75.24 0.08, -75.62 43.70 80
10 10/29/2023 02:27:21 0.03, -75.25 0.02, -75.22 4.46 80
